Weather History for Pinedale, WY

Change the Weather History Date:

Friday, January 31, 2014

  Actual Average (KBPI) Record (KBPI)
Temperature  
Mean Temperature 10 °F 11 °F  
Max Temperature 23 °F 26 °F 48 °F (2003)
Min Temperature -4 °F -2 °F -44 °F (1979)
Degree Days  
Heating Degree Days 56 54  
Month to date heating degree days 1674  
Since 1 July heating degree days 6113  
Cooling Degree Days 0 0  
Month to date cooling degree days 0  
Year to date cooling degree days 0  
Moisture  
Dew Point 5 °F    
Average Humidity 82    
Maximum Humidity 100    
Minimum Humidity 59    
Precipitation  
Precipitation 0.00 in 0.01 in 0.01 in (2006)
Month to date precipitation 0.31  
Year to date precipitation 0.31  
Sea Level Pressure  
Sea Level Pressure 29.71 in    
Wind  
Wind Speed 4 mph (WNW)    
Max Wind Speed 17 mph    
Max Gust Speed -    
Visibility 9 miles    
Events      
T = Trace of Precipitation, MM = Missing Value Source: NWS Daily Summary

Daily Weather History Graph

Daily Weather History Graph

Search for Another Location

Airport:

Trip Planner

Search our weather history database for the weather conditions in past years. The results will help you decide how hot, cold, wet, or windy it might be!

Date:

Astronomy

Jan. 31, 2014 Rise Set
Actual Time 7:34 AM MST 5:31 PM MST
Civil Twilight 7:04 AM MST 6:01 PM MST
Nautical Twilight 6:30 AM MST 6:35 PM MST
Astronomical Twilight 5:57 AM MST 7:08 PM MST
Moon 7:44 AM MST (1/31) 7:02 PM MST (1/31)
Length of Visible Light 10h 56m
Length of Day
9h 56m
New Moon, 1% of the Moon is Illuminated
Jan 31
New Moon
Feb 6
First Quarter
Feb 14
Full
Feb 22
Last Quarter
Mar 1
New

Hourly Weather History & Observations

Time (MST) Temp. Windchill Dew Point Humidity Pressure Visibility Wind Dir Wind Speed Gust Speed Precip Events Conditions
12:15 AM 8.6 °F - 6.8 °F 92% 29.69 in 10.0 mi Calm Calm - N/A   Scattered Clouds
12:35 AM 8.6 °F - 8.6 °F 100% 29.69 in 10.0 mi Calm Calm - N/A   Mostly Cloudy
12:55 AM 10.4 °F - 10.4 °F 100% 29.69 in 10.0 mi Calm Calm - N/A   Overcast
1:15 AM 12.2 °F - 10.4 °F 92% 29.69 in 10.0 mi Calm Calm - N/A   Overcast
1:35 AM 12.2 °F - 10.4 °F 92% 29.70 in 10.0 mi Calm Calm - N/A   Overcast
1:55 AM 10.4 °F - 10.4 °F 100% 29.69 in 10.0 mi Calm Calm - N/A   Overcast
2:15 AM 12.2 °F - 10.4 °F 92% 29.69 in 10.0 mi Calm Calm - N/A   Overcast
2:35 AM 12.2 °F - 10.4 °F 92% 29.70 in 10.0 mi Calm Calm - N/A   Overcast
2:55 AM 10.4 °F - 8.6 °F 92% 29.70 in 10.0 mi Calm Calm - N/A   Mostly Cloudy
3:15 AM 10.4 °F - 8.6 °F 92% 29.70 in 10.0 mi Calm Calm - N/A   Scattered Clouds
3:35 AM 5.0 °F -2.1 °F 5.0 °F 100% 29.69 in 10.0 mi West 3.5 mph - N/A   Mostly Cloudy
3:55 AM 6.8 °F - 5.0 °F 92% 29.69 in 10.0 mi Calm Calm - N/A   Mostly Cloudy
4:15 AM 6.8 °F -0.1 °F 5.0 °F 92% 29.69 in 10.0 mi NW 3.5 mph - N/A   Scattered Clouds
4:35 AM 5.0 °F - 3.2 °F 92% 29.69 in 10.0 mi Calm Calm - N/A   Mostly Cloudy
4:55 AM 3.2 °F -4.2 °F 1.4 °F 92% 29.69 in 10.0 mi WNW 3.5 mph - N/A   Scattered Clouds
5:15 AM -0.4 °F - -4.0 °F 85% 29.69 in 10.0 mi Calm Calm - N/A   Scattered Clouds
5:35 AM 1.4 °F -6.2 °F -2.2 °F 85% 29.69 in 10.0 mi West 3.5 mph - N/A   Scattered Clouds
5:55 AM -0.4 °F -14.7 °F -4.0 °F 85% 29.69 in 10.0 mi WNW 8.1 mph - N/A   Clear
6:15 AM -0.4 °F -14.7 °F -4.0 °F 85% 29.70 in 0.8 mi NW 8.1 mph - N/A   Mostly Cloudy
6:35 AM -2.2 °F -12.5 °F -4.0 °F 92% 29.71 in 1.8 mi West 4.6 mph - N/A   Mostly Cloudy
6:55 AM - - - N/A% 29.71 in 7.0 mi West 6.9 mph - N/A   Mostly Cloudy
7:15 AM - - - N/A% 29.71 in 10.0 mi WNW 6.9 mph - N/A   Scattered Clouds
7:35 AM - - - N/A% 29.71 in 10.0 mi WNW 4.6 mph - N/A   Scattered Clouds
7:55 AM - - - N/A% 29.71 in 10.0 mi West 8.1 mph - N/A   Mostly Cloudy
8:15 AM - - - N/A% 29.71 in 10.0 mi North 4.6 mph - N/A   Scattered Clouds
8:35 AM - - - N/A% 29.71 in 10.0 mi NNW 3.5 mph - N/A   Clear
8:55 AM - - - N/A% 29.72 in 5.0 mi Calm Calm - N/A   Unknown
9:15 AM - - - N/A% 29.72 in 2.5 mi Calm Calm - N/A   Unknown
9:35 AM - - - N/A% 29.72 in 4.0 mi Calm Calm - N/A   Unknown
9:55 AM - - - N/A% 29.72 in 10.0 mi WNW 4.6 mph - N/A   Scattered Clouds
10:15 AM - - - N/A% 29.73 in 10.0 mi Calm Calm - N/A   Clear
10:35 AM 12.2 °F 6.1 °F 8.6 °F 85% 29.73 in 7.0 mi SE 3.5 mph - N/A   Clear
10:55 AM 8.6 °F -2.6 °F 5.0 °F 85% 29.73 in 10.0 mi East 6.9 mph - N/A   Clear
11:15 AM 10.4 °F 4.0 °F 8.6 °F 92% 29.72 in 10.0 mi East 3.5 mph - N/A   Clear
11:35 AM 15.8 °F - 10.4 °F 79% 29.72 in 10.0 mi Calm Calm - N/A   Clear
11:55 AM 21.2 °F 10.9 °F 12.2 °F 68% 29.71 in 10.0 mi WNW 9.2 mph - N/A   Clear
12:15 PM 21.2 °F 10.9 °F 14.0 °F 74% 29.69 in 10.0 mi WNW 9.2 mph - N/A   Clear
12:35 PM 21.2 °F 10.1 °F 14.0 °F 74% 29.68 in 10.0 mi NW 10.4 mph - N/A   Clear
12:55 PM 23.0 °F 10.1 °F 14.0 °F 68% 29.67 in 10.0 mi NW 15.0 mph - N/A   Clear
1:15 PM 23.0 °F 10.6 °F 14.0 °F 68% 29.67 in 7.0 mi WNW 13.8 mph - N/A   Clear
1:35 PM 23.0 °F 9.6 °F 12.2 °F 63% 29.67 in 10.0 mi WNW 16.1 mph - N/A   Clear
1:55 PM 23.0 °F 11.1 °F 12.2 °F 63% 29.67 in 10.0 mi WNW 12.7 mph - N/A   Clear
2:15 PM 23.0 °F 11.1 °F 10.4 °F 59% 29.67 in 10.0 mi NW 12.7 mph - N/A   Clear
2:35 PM 23.0 °F 9.2 °F 10.4 °F 59% 29.66 in 10.0 mi WNW 17.3 mph - N/A   Clear
2:55 PM 23.0 °F 9.2 °F 12.2 °F 63% 29.67 in 10.0 mi WNW 17.3 mph - N/A   Clear
3:15 PM 23.0 °F 9.6 °F 10.4 °F 59% 29.67 in 10.0 mi WNW 16.1 mph - N/A   Clear
3:35 PM 23.0 °F 10.6 °F 10.4 °F 59% 29.67 in 10.0 mi WNW 13.8 mph - N/A   Clear
3:55 PM 21.2 °F 7.3 °F 14.0 °F 74% 29.69 in 10.0 mi WNW 16.1 mph - N/A   Clear
4:15 PM 21.2 °F 7.8 °F 12.2 °F 68% 29.69 in 10.0 mi WNW 15.0 mph - N/A   Clear
4:35 PM 19.4 °F 7.2 °F 10.4 °F 68% 29.69 in 10.0 mi NW 11.5 mph - N/A   Clear
4:55 PM 19.4 °F 7.9 °F 10.4 °F 68% 29.70 in 10.0 mi WNW 10.4 mph - N/A   Clear
5:15 PM 17.6 °F 6.4 °F 10.4 °F 73% 29.71 in 10.0 mi WNW 9.2 mph - N/A   Clear
5:35 PM 14.0 °F 2.0 °F 8.6 °F 79% 29.71 in 10.0 mi WNW 9.2 mph - N/A   Clear
5:55 PM 12.2 °F 1.7 °F 5.0 °F 73% 29.72 in 10.0 mi NW 6.9 mph - N/A   Clear
6:15 PM 10.4 °F -2.4 °F 5.0 °F 79% 29.72 in 10.0 mi NW 9.2 mph - N/A   Clear
6:35 PM 8.6 °F -3.7 °F 3.2 °F 79% 29.73 in 10.0 mi NW 8.1 mph - N/A   Scattered Clouds
6:55 PM 5.0 °F -6.9 °F 1.4 °F 85% 29.73 in 10.0 mi WNW 6.9 mph - N/A   Scattered Clouds
7:15 PM 1.4 °F -12.5 °F -2.2 °F 85% 29.73 in 10.0 mi West 8.1 mph - N/A   Clear
7:35 PM 5.0 °F -9.1 °F 1.4 °F 85% 29.74 in 10.0 mi West 9.2 mph - N/A   Clear
7:55 PM 5.0 °F -9.1 °F 1.4 °F 85% 29.74 in 10.0 mi WNW 9.2 mph - N/A   Clear
8:15 PM 3.2 °F -11.3 °F -0.4 °F 85% 29.75 in 10.0 mi WNW 9.2 mph - N/A   Scattered Clouds
8:35 PM 3.2 °F -13.1 °F -0.4 °F 85% 29.74 in 10.0 mi West 11.5 mph - N/A   Scattered Clouds
8:55 PM 3.2 °F -9.1 °F -0.4 °F 85% 29.75 in 10.0 mi West 6.9 mph - N/A   Scattered Clouds
9:15 PM 1.4 °F -6.2 °F -0.4 °F 92% 29.75 in 10.0 mi NNW 3.5 mph - N/A   Scattered Clouds
9:35 PM -2.2 °F -16.8 °F -5.8 °F 85% 29.75 in 10.0 mi NNW 8.1 mph - N/A   Scattered Clouds
9:55 PM -0.4 °F -10.4 °F -4.0 °F 85% 29.75 in 10.0 mi West 4.6 mph - N/A   Scattered Clouds
10:15 PM -2.2 °F - -5.8 °F 85% 29.75 in 10.0 mi Calm Calm - N/A   Clear
10:35 PM -4.0 °F -17.8 °F -7.6 °F 85% 29.75 in 10.0 mi NW 6.9 mph - N/A   Clear
10:55 PM -4.0 °F -20.2 °F -5.8 °F 92% 29.75 in 10.0 mi NW 9.2 mph - N/A   Clear
11:15 PM -4.0 °F -12.4 °F -7.6 °F 85% 29.77 in 10.0 mi NNW 3.5 mph - N/A   Clear
11:35 PM -4.0 °F - -7.6 °F 85% 29.77 in 10.0 mi Calm Calm - N/A   Clear
11:55 PM -4.0 °F -12.4 °F -7.6 °F 85% 29.77 in 10.0 mi WNW 3.5 mph - N/A   Clear